Miscellaneous Local Product
Issued by NWS North Platte, NE

Home | Current Version | Previous Version | Graphics & Text | Print | Product List | Glossary On
Versions: 1 2 3 4 5 6 7 8 9 10 11 12 13 14 15 16 17 18 19 20 21 22 23 24 25 26 27 28 29 30 31 32 33 34 35 36 37 38 39 40 41 42 43 44 45 46 47 48 49 50
819
AXUS43 KLBF 221710
MISLBF


WESTERN AND NORTH CENTRAL NEBRASKA HOURLY WEATHER ROUNDUP
NATIONAL WEATHER SERVICE NORTH PLATTE NE
1200 PM CDT FRI SEP 22 2017

NOTE: "FAIR" INDICATES FEW OR NO CLOUDS BELOW 12,000 FEET WITH NO
SIGNIFICANT WEATHER AND/OR OBSTRUCTIONS TO VISIBILITY.

NOTE: STATIONS NOT REPORTING VARIABLES SUCH AS SKY/WEATHER OR
PRESSURE ARE PROVIDED BY RAWS AND APRS NETWORKS AND ARE NOT UNDER
NATIONAL WEATHER SERVICE QUALITY CONTROL.

...OBSERVATIONS IN AND NEAR THE EASTERN PANHANDLE OF NEBRASKA...

CITY           SKY/WX    TMP DP  RH WIND       PRES   REMARKS
PINE RIDGE     CLOUDY    61  44  53 NW10      29.83R
GORDON         PTSUNNY   59  44  58 NW16G24   29.82S
CHADRON        MOSUNNY   60  38  43 NW6       29.83F
ALLIANCE       SUNNY     64  44  48 VRB6      29.82F
SIDNEY         SUNNY     63  43  48 N8        29.83F
CRESCENT LAKE    N/A     62  47  58 N9G16       N/A
$$

...OBSERVATIONS IN NORTHERN NEBRASKA AND FAR SOUTHERN SOUTH DAKOTA...

CITY           SKY/WX    TMP DP  RH WIND       PRES   REMARKS
WINNER         FAIR      71  52  50 W17       29.72R
VALENTINE      SUNNY     70  49  47 NW12      29.76R
THEDFORD       SUNNY     74  54  48 W10       29.77R
AINSWORTH      SUNNY     69  51  53 NW14G20   29.76R
O`NEILL        SUNNY     86  66  49 S23G31    29.71S
ORD            SUNNY     86  62  44 S21G30    29.72F
BROKEN BOW     SUNNY     88  61  40 S22G29    29.74S
VALENTINE NWR    N/A     64  48  56 NW12        N/A
HALSEY           N/A     82  57  42 SW8G20      N/A
BUTTE            N/A     85  66  52 SW17        N/A
CHAMBERS         N/A     86  66  51 SW3G17      N/A
EWING            N/A     87  69  55 S14G23      N/A  HX  91
$$

...OBSERVATIONS IN SOUTHWEST NEBRASKA AND FAR NORTHEAST COLORADO...

CITY           SKY/WX    TMP DP  RH WIND       PRES   REMARKS
WRAY           FAIR      75  34  22 CALM      29.80S
HOLYOKE        FAIR      72  39  30 N3        29.81S
IMPERIAL       SUNNY     80  40  23 SW13      29.78S
OGALLALA       SUNNY     72  42  34 NW5       29.78F
NORTH PLATTE   SUNNY     87  57  35 S14       29.73F
MCCOOK         LGT RAIN  91  57  31 SW23G31   29.75S
LEXINGTON      SUNNY     91  58  32 S23       29.75S
STAPLETON        N/A     83  57  41 S6          N/A
GOTHENBURG       N/A     84  56  37 S12         N/A
CALLAWAY         N/A     83  62  49 S17         N/A
$$

...OBSERVATIONS IN CENTRAL LINCOLN COUNTY AREA...

CITY           SKY/WX    TMP DP  RH WIND       PRES   REMARKS
N.P. AIRPORT   SUNNY     87  57  35 S14       29.73F
N.P. DOWNTOWN    N/A     85  57  38 MISG        N/A
N.P. SOUTHEAST   N/A     85  56  37 S8G20       N/A
N.P. HILLCREST   N/A     84  56  37 SW13G20     N/A
$$

...SOME OBSERVATIONS FROM AROUND THE REGION...

CITY           SKY/WX    TMP DP  RH WIND       PRES   REMARKS
DENVER         MOSUNNY   69  37  30 NE5       29.82F
LIMON            N/A    N/A N/A N/A MISG      29.87S
ASPEN          LGT RAIN  60  36  40 S10       29.94F
LARAMIE        CLOUDY    64  32  30 SW24G31   29.92R
CASPER         CLOUDY    47  33  58 VRB3      29.98S
CHEYENNE       SUNNY     61  39  44 VRB6      29.89R
SCOTTSBLUFF    SUNNY     60  41  49 CALM      29.84S
GRAND ISLAND   SUNNY     89  66  46 S22G33    29.78S HX  91
OMAHA          MOSUNNY   88  70  55 S22G29    29.84F HX  93
SIOUX FALLS    MOSUNNY   85  72  65 S18G29    29.72F HX  91
PIERRE         CLOUDY    68  56  65 W15       29.65R
RAPID CITY     CLOUDY    55  39  54 NW30G38   29.84R
BISMARCK       CLOUDY    56  45  66 N8G20     29.80R
KANSAS CITY    SUNNY     85  72  65 S15       29.98S HX  91
HILL CITY      SUNNY     93  60  33 SW26G43   29.79F HX  93
WICHITA        MOSUNNY   88  70  55 S21       29.91F HX  93
DODGE CITY     MOSUNNY   86  61  42 S24G31    29.89S
OKLAHOMA CITY  MOSUNNY   83  69  62 S16       29.97F
DALLAS         PTSUNNY   86  72  62 S13       29.98S HX  92
AMARILLO       SUNNY     83  64  52 S20G30    29.97F
$$




USA.gov is the U.S. government's official web portal to all federal, state and local government web resources and services.